STARLINK-32310, 61662

Orbit data source: Space-Track

STARLINK-32310, 61662 is a payload satellite owned by SpaceX/Seattle (US) in LEO that was launched on Sat, 26 Oct 2024 UTC via an FALCON 9 launch vehicle from the Air Force Eastern Test Range (AFETR). Payload-class satellites include a variety of spacecraft equipped with specific instruments for various scientific and technological missions. These include communications satellites like Starlink; space stations such as the ISS; scientific satellites like the Hubble; Earth observation satellites from companies like Planet Labs, Umbra, and HawkEye 360; GPS; miniature CubeSats for education and research; and military/defense satellites.

Loading next visibility...
Identifier
61662, 2024-193B
Orbit
LEO
Country
Flag of USUS
Related business
Manufacturer
SpaceX/Seattle
Mission
Operational Commercial Communications
Bus & Motor
STARLINK V2M, Unknown motor
Mass
730 kg wet, ~700 kg dry
Launch date (UTC)
2024-10-26 (1 year ago)
Launch vehicle
FALCON 9
Launch site
Air Force Eastern Test Range (AFETR)
Object type
Payload
Rocket body
Debris
Shape & HBR
Box + 2 Pan, 17.7 m
Radar Cross Section
33.884 m², Large (>1 m²)

Expand to show TLE details & history
Last TLE update: 2 days ago

TLE from 2 days ago
0 STARLINK-32310
1 61662U 24193B   25312.24746605  .00001815  00000-0  73387-4 0  9994
2 61662  53.1614 295.0732 0001436 105.8758 254.2401 15.30200672 57937
Epoch: 2025-11-08T05:56Z
TLE epoch observation values (Epoch: 2025-11-08T05:56:21.066Z)
Latitude
-0.00004°
Longitude
158.30558°
Altitude
476.38 km
Speed
7.629 km/s
True Right ascension
19h 40m 17s
True Declination
0° 00' 00"
Sunlit
Object was in daylight at epoch
Visualization orbit readout
Latitude
Unknown
Longitude
Unknown
Altitude
Unknown
Speed
Unknown
Apparent Right ascension
Unknown
Apparent Declination
Unknown
Sunlit
N/A
Visualization observer readout
Local Sidereal Time
19:14:38
Azimuth
Unknown
Elevation
Unknown
Doppler factor
Unknown
Orbital elements
Apogee altitude
476.453 km
Perigee altitude
474.485 km
Semi-major axis
6,853.606 km
Eccentricity
0.00014
Inclination
53.1614°
RAAN
295.0732°
Arg. of periapsis
105.8758°
True anomaly
254.22426°
Mean anomaly
254.2401°
Eccentric anomaly
254.23218°
Mean motion
3.82529 °/min
Orbital period
94.11 mins
BSTAR
0.000073387
Loading maneuver chart data...
Computing Atmospheric mass density...
Loading historical data...
Loading historical data...
Loading historical data...
Loading historical data...
Loading historical data...
Loading historical data...
Loading historical data...

Documentation

Showing up to 5 results
|